Weather History for San Antonio, TX

Change the Weather History Date:

Thursday, August 2, 2012

  Actual Average Record
Temperature  
Mean Temperature 89 °F 86 °F  
Max Temperature 101 °F 96 °F 103 °F (2011)
Min Temperature 76 °F 75 °F 63 °F (1925)
Degree Days  
Heating Degree Days 0 0  
Month to date heating degree days 0 0  
Since 1 June heating degree days 0 0  
Since 1 July heating degree days 0 0  
Cooling Degree Days 24 21  
Month to date cooling degree days 48 42  
Year to date cooling degree days 2143 1802  
Since 1 June cooling degree days 1287 1173  
Growing Degree Days 38 (Base 50)    
Moisture  
Dew Point 69 °F    
Average Humidity 62    
Maximum Humidity 94    
Minimum Humidity 29    
Precipitation  
Precipitation 0.00 in 0.05 in 1.47 in (1971)
Month to date precipitation 0.00 0.09  
Year to date precipitation 26.64 18.94  
Snow  
Snow 0.00 in - - ()
Month to date snowfall 0.0  
Since 1 June snowfall 0.0  
Since 1 July snowfall 0.0  
Snow Depth 0.00 in    
Sea Level Pressure  
Sea Level Pressure 29.86 in    
Wind  
Wind Speed 10 mph (SSE)    
Max Wind Speed 23 mph    
Max Gust Speed 31 mph    
Visibility 10 miles    
Events      
T = Trace of Precipitation, MM = Missing Value Source: NWS Daily Summary

Daily Weather History Graph

Daily Weather History Graph

Search for Another Location

Airport:

Trip Planner

Search our weather history database for the weather conditions in past years. The results will help you decide how hot, cold, wet, or windy it might be!

Date:

Astronomy

Aug. 02, 2012 Rise Set
Actual Time 6:54 AM CDT 8:25 PM CDT
Civil Twilight 6:28 AM CDT 8:50 PM CDT
Nautical Twilight 5:58 AM CDT 9:21 PM CDT
Astronomical Twilight 5:26 AM CDT 9:53 PM CDT
Moon 8:42 PM CDT (8/2) 7:26 AM CDT (8/2)
Length of Visible Light 14h 21m
Length of Day
13h 30m
Full, 100% of the Moon is Illuminated
Aug 2
Full
Aug 9
Last Quarter
Aug 17
New
Aug 24
First Quarter
Aug 31
Full

Hourly Weather History & Observations

Time (CDT) Temp. Heat Index Dew Point Humidity Pressure Visibility Wind Dir Wind Speed Gust Speed Precip Events Conditions
12:53 AM 81.0 °F 82.7 °F 64.9 °F 58% 29.88 in 10.0 mi SSE 8.1 mph - N/A   Partly Cloudy
1:53 AM 79.0 °F - 68.0 °F 69% 29.88 in 10.0 mi SSE 6.9 mph - N/A   Partly Cloudy
2:53 AM 78.1 °F - 70.0 °F 76% 29.87 in 10.0 mi SSE 8.1 mph - N/A   Partly Cloudy
3:53 AM 77.0 °F - 72.0 °F 84% 29.86 in 10.0 mi South 6.9 mph - N/A   Partly Cloudy
4:53 AM 75.9 °F - 72.0 °F 87% 29.86 in 10.0 mi SSE 6.9 mph - N/A   Scattered Clouds
5:38 AM 75.2 °F - 71.6 °F 89% 29.92 in 10.0 mi South 5.8 mph - N/A   Mostly Cloudy
5:50 AM 75.2 °F - 73.4 °F 94% 29.92 in 10.0 mi South 3.5 mph - N/A   Scattered Clouds
5:53 AM 75.9 °F - 73.0 °F 91% 29.86 in 10.0 mi South 3.5 mph - N/A   Scattered Clouds
6:34 AM 75.2 °F - 73.4 °F 94% 29.93 in 9.0 mi South 6.9 mph - N/A   Mostly Cloudy
6:45 AM 75.2 °F - 73.4 °F 94% 29.93 in 9.0 mi South 5.8 mph - N/A   Scattered Clouds
6:53 AM 75.9 °F - 73.0 °F 91% 29.87 in 9.0 mi South 5.8 mph - N/A   Scattered Clouds
7:14 AM 75.2 °F - 73.4 °F 94% 29.94 in 8.0 mi South 4.6 mph - N/A   Mostly Cloudy
7:53 AM 77.0 °F - 73.0 °F 88% 29.88 in 8.0 mi South 4.6 mph - N/A   Mostly Cloudy
8:39 AM 78.8 °F - 73.4 °F 83% 29.95 in 8.0 mi South 4.6 mph - N/A   Scattered Clouds
8:53 AM 79.0 °F - 73.0 °F 82% 29.90 in 8.0 mi South 5.8 mph - N/A   Scattered Clouds
9:53 AM 82.9 °F 88.8 °F 73.0 °F 72% 29.89 in 10.0 mi South 6.9 mph - N/A   Partly Cloudy
10:53 AM 86.0 °F 92.2 °F 72.0 °F 63% 29.89 in 10.0 mi South 8.1 mph - N/A   Clear
11:53 AM 89.1 °F 94.1 °F 70.0 °F 53% 29.88 in 10.0 mi SSE 6.9 mph - N/A   Clear
12:53 PM 93.0 °F 97.4 °F 68.0 °F 44% 29.86 in 10.0 mi South 6.9 mph - N/A   Clear
1:53 PM 96.1 °F 98.3 °F 64.0 °F 35% 29.84 in 10.0 mi ESE 10.4 mph - N/A   Clear
2:53 PM 98.1 °F 99.1 °F 62.1 °F 30% 29.82 in 10.0 mi South 8.1 mph - N/A   Clear
3:53 PM 100.0 °F 101.8 °F 63.0 °F 29% 29.79 in 10.0 mi SE 9.2 mph 19.6 mph N/A   Clear
4:53 PM 100.4 °F 103.6 °F 64.4 °F 31% 29.85 in 10.0 mi SE 11.5 mph 20.7 mph N/A   Clear
5:53 PM 100.0 °F 101.8 °F 63.0 °F 29% 29.77 in 10.0 mi South 15.0 mph 18.4 mph N/A   Partly Cloudy
6:53 PM 99.0 °F 100.5 °F 63.0 °F 30% 29.76 in 10.0 mi SSE 10.4 mph 18.4 mph N/A   Partly Cloudy
7:53 PM 96.1 °F 98.8 °F 64.9 °F 36% 29.76 in 10.0 mi SE 16.1 mph - N/A   Partly Cloudy
8:53 PM 91.9 °F 95.4 °F 66.9 °F 44% 29.78 in 10.0 mi SSE 17.3 mph - N/A   Partly Cloudy
9:53 PM 89.1 °F 91.0 °F 64.9 °F 45% 29.80 in 10.0 mi SSE 16.1 mph - N/A   Partly Cloudy
10:53 PM 86.0 °F 88.8 °F 66.9 °F 53% 29.81 in 10.0 mi SSE 15.0 mph - N/A   Partly Cloudy
11:53 PM 82.4 °F 84.6 °F 66.2 °F 58% 29.88 in 10.0 mi SSE 10.4 mph - N/A   Partly Cloudy